Theta_e
346 344 346 346 348 349 350 350 350 347 347 348 346 343 346 345 349 346 346 348 350 351 352 352 352 352 351 351 350 350 349 346 348 349 346 344 337 332 339 343 346 348 349
349 348 348 349 351 351 350 346 347 344 345 344 345 344 348 351 349 350 350 351 351 352 353 352 352 352 351 350 349 347 343 343 350 350 348 347 344 342 345 346 346 348 349
350 350 351 349 351 350 342 346 344 345 347 349 348 351 351 351 351 351 352 353 353 353 352 352 352 352 351 350 347 344 343 342 344 348 346 346 339 345 346 346 344 348 348
349 350 349 347 347 345 344 345 344 350 348 347 347 349 351 353 352 353 354 353 353 351 351 351 351 351 351 350 349 344 343 340 343 346 349 347 343 345 346 347 346 346 343
348 348 346 347 345 346 350 351 347 348 348 346 347 353 354 354 352 353 353 353 350 351 351 351 351 348 348 347 344 343 342 344 343 349 346 341 341 344 344 339 340 343 347
350 349 346 346 347 352 352 350 346 352 350 344 352 354 354 353 352 353 352 351 351 351 351 352 352 351 347 345 343 342 343 346 346 347 344 341 340 340 348 347 349 345 342
351 349 349 347 352 351 352 353 353 353 351 351 354 353 354 352 353 352 351 351 351 353 353 353 351 349 347 346 343 342 344 348 348 349 349 344 329 346 341 347 345 346 343
352 351 352 349 351 352 353 353 352 353 352 353 350 349 347 349 348 344 346 347 349 353 353 351 344 344 343 343 343 342 344 347 350 349 348 345 332 348 340 339 343 346 344
352 352 353 354 354 353 352 352 353 353 352 349 344 342 344 342 336 338 340 343 343 344 347 347 343 343 342 342 341 342 344 347 348 348 351 343 333 344 348 345 345 346 344
351 353 354 354 353 353 352 353 352 348 348 342 341 341 341 338 338 346 351 348 345 343 344 342 341 341 343 343 341 341 345 348 346 340 350 348 338 340 344 346 344 348 347
350 350 352 354 354 351 350 350 349 348 345 343 344 340 340 348 350 353 353 346 342 342 342 342 342 342 343 347 346 346 345 350 348 347 349 343 341 340 347 339 342 345 345
349 351 349 349 351 351 349 348 352 351 350 344 351 349 344 352 352 353 351 346 349 348 348 347 349 348 346 350 349 351 349 350 343 341 348 344 343 342 350 343 339 339 343
353 352 353 350 348 349 353 347 352 351 351 350 351 353 352 352 350 350 350 353 351 347 348 352 345 350 352 351 351 351 350 349 347 338 345 343 344 343 345 346 343 342 341
351 350 351 353 348 351 352 348 353 352 350 351 351 351 351 351 348 350 350 351 351 353 352 347 351 351 350 350 350 349 351 348 348 347 347 337 341 344 344 349 348 342 346
349 350 353 352 349 351 353 347 349 349 347 347 351 350 349 352 350 349 351 350 351 350 349 351 351 351 350 351 348 351 348 349 349 349 349 345 344 341 344 344 350 349 347
349 348 350 351 351 352 353 353 351 350 350 347 349 352 347 348 352 352 354 351 351 349 351 352 351 347 351 349 351 350 343 345 346 345 348 347 346 344 342 341 342 348 347
350 349 351 351 353 350 352 353 355 351 348 350 346 350 351 352 353 352 352 352 352 349 349 351 351 349 349 347 345 349 344 344 345 339 339 338 346 346 344 341 339 340 342
350 351 352 351 355 354 356 355 352 351 351 348 348 348 351 352 355 353 354 352 352 350 350 350 350 347 346 339 334 336 336 336 335 335 335 338 339 342 345 343 340 339 339
350 353 351 352 353 355 354 355 354 354 351 353 349 351 350 352 354 353 351 351 352 349 350 351 347 346 341 335 335 334 335 335 337 337 339 339 340 339 339 346 342 342 341
349 351 352 352 352 355 354 355 356 352 354 353 355 353 350 355 352 353 352 351 352 351 350 349 346 342 336 337 338 335 335 337 338 339 338 340 340 341 344 345 345 346 343
350 353 353 354 352 358 358 357 354 355 352 353 347 354 354 351 354 351 350 350 351 350 347 347 343 338 334 338 335 339 340 337 336 339 338 337 338 339 340 343 344 345 343
351 353 356 355 357 354 356 352 352 353 355 354 353 352 353 353 351 349 349 352 350 350 348 345 342 340 335 339 337 336 343 341 338 338 337 335 333 334 340 341 340 342 343
353 355 356 356 358 355 356 352 354 356 355 356 356 353 356 355 350 355 352 350 351 349 350 344 341 337 338 338 336 339 346 344 341 338 337 335 333 333 335 335 333 332 338
353 356 357 358 358 359 353 359 356 354 357 350 346 346 348 353 348 349 347 352 350 347 344 339 341 333 335 336 336 338 336 335 345 342 337 335 332 332 329 332 329 329 329
352 356 359 360 360 361 354 359 359 356 349 352 348 350 348 349 347 351 350 348 348 347 341 338 339 337 339 335 339 336 337 336 335 337 341 336 334 332 331 329 329 330 328
352 355 358 362 363 362 362 356 358 357 353 352 350 354 352 351 348 349 346 348 347 345 342 340 340 339 337 339 337 334 334 336 337 339 341 336 334 333 331 330 330 329 328
Wind_Speed
17 21 21 22 22 22 22 21 22 23 22 21 19 20 19 18 16 18 17 17 15 14 14 14 12 12 12 11 11 11 11 9 10 9 10 11 11 9 9 7 8 11 12
18 18 21 21 20 19 19 22 21 22 21 20 17 17 17 16 16 16 16 14 14 13 12 12 11 12 12 11 10 9 8 7 8 6 9 10 11 12 10 13 17 14 12
20 21 20 21 19 19 21 19 21 20 18 17 16 16 16 15 14 15 13 12 12 12 11 11 10 10 11 10 9 8 7 6 5 4 5 10 11 12 11 13 14 14 12
24 21 19 20 19 18 18 18 19 17 16 16 14 15 13 12 12 12 11 10 11 10 10 10 9 9 9 8 7 7 6 4 2 1 1 10 11 13 12 12 12 12 12
25 22 22 19 17 17 16 16 17 16 15 14 13 11 10 11 11 10 10 9 9 9 8 9 9 8 7 6 5 5 6 5 3 6 12 16 14 13 12 11 12 13 9
22 20 20 17 16 16 16 16 16 15 14 13 11 10 9 9 9 9 8 8 7 7 7 8 7 6 5 5 4 3 2 3 6 9 12 13 13 14 12 11 12 11 10
22 19 17 16 16 16 15 15 14 13 13 11 9 9 8 8 7 6 6 5 5 6 6 7 6 6 4 3 3 3 5 5 5 7 9 9 11 12 13 12 10 11 11
22 19 17 18 17 16 15 14 14 13 12 9 8 7 6 6 5 5 4 4 4 4 5 5 5 5 5 4 3 3 2 4 3 6 11 10 10 13 12 11 12 11 10
26 21 18 17 16 16 16 15 13 12 11 9 8 6 5 5 4 4 3 3 4 4 3 3 3 3 3 2 2 2 3 4 4 3 11 10 11 13 12 10 9 10 9
24 21 22 18 17 16 15 13 12 11 10 7 6 6 6 5 5 4 3 3 3 2 2 1 1 1 0 0 1 1 4 3 11 4 10 8 11 13 12 10 9 9 7
21 21 19 19 18 19 15 11 10 9 8 6 6 6 5 6 8 6 4 3 2 2 2 2 2 3 5 10 6 5 3 3 5 6 8 7 9 12 12 10 10 9 8
21 21 19 20 18 18 16 12 9 8 8 7 7 8 5 7 6 9 6 4 6 7 10 4 9 8 4 8 16 13 8 2 2 13 10 11 10 10 11 9 9 11 9
23 20 22 23 20 19 19 16 16 14 16 10 13 7 5 4 2 8 9 3 4 3 8 6 7 4 3 2 5 3 13 8 8 7 9 5 6 8 11 10 8 10 10
23 24 25 24 20 16 20 13 19 20 14 16 14 11 7 4 3 2 6 6 2 8 2 6 5 7 11 11 11 13 13 12 10 3 15 3 3 4 8 11 11 10 11
25 24 27 26 22 16 11 12 14 12 12 10 15 10 9 8 5 2 3 6 8 7 3 5 5 7 9 8 10 5 8 5 10 2 5 6 3 4 6 9 13 12 11
22 18 24 22 20 17 13 7 6 6 5 9 6 15 10 8 1 1 3 6 10 6 5 4 6 7 10 8 11 8 7 6 5 6 3 5 3 6 7 7 9 11 13
22 22 22 21 20 21 16 11 6 8 8 7 9 9 7 5 5 4 5 10 7 4 8 4 4 8 12 15 13 9 6 10 4 5 7 9 8 10 9 7 7 9 11
24 23 20 20 25 23 18 15 14 12 13 12 11 13 12 9 10 6 6 7 8 5 5 4 2 7 13 10 11 10 8 6 7 9 8 5 4 5 11 7 7 9 11
24 24 24 22 22 25 21 17 16 16 14 9 14 10 6 12 10 8 9 6 9 6 6 0 2 6 11 9 10 10 1 5 6 7 3 2 2 1 8 12 6 6 12
26 25 26 23 20 28 24 21 16 16 9 12 8 11 13 11 8 8 9 9 9 4 2 2 3 6 6 11 7 11 3 3 3 1 3 3 8 4 11 9 1 8 6
26 26 27 24 25 22 20 21 19 16 17 16 20 11 13 9 11 9 12 11 10 6 4 3 1 6 6 2 9 14 14 2 3 5 7 9 6 4 4 6 10 7 7
27 29 27 27 23 24 21 22 21 24 23 26 20 19 18 13 10 8 8 6 9 5 6 4 4 6 10 5 5 12 2 8 8 7 6 7 1 7 9 6 8 7 4
29 29 30 29 25 26 22 23 23 11 10 13 23 16 15 14 11 12 6 6 6 5 11 5 4 3 8 4 4 4 4 1 2 9 8 6 4 4 6 3 4 5 7
29 30 32 31 28 27 31 21 22 15 12 12 9 13 14 12 11 10 11 11 8 3 7 5 6 1 3 9 1 2 2 2 3 2 12 6 7 8 5 4 3 3 6
30 33 33 34 32 28 30 25 20 19 22 18 18 16 12 13 11 10 12 10 9 6 9 4 3 1 1 6 11 5 2 5 1 1 1 6 11 11 8 6 6 2 3
34 34 35 37 36 34 31 32 26 24 26 17 14 15 13 13 15 12 13 16 14 11 8 8 6 5 3 2 2 2 7 3 2 2 2 8 5 8 14 8 8 6 4
Wind_Direction
125 132 132 127 120 117 112 109 109 112 117 114 105 98 96 95 95 92 92 92 92 88 83 80 77 75 76 76 83 83 84 89 89 94 90 93 84 92 98 87 99 108 99
136 139 131 125 121 119 116 116 118 120 118 115 107 100 96 94 91 89 87 89 89 86 81 78 77 73 71 76 81 88 92 92 106 112 104 104 88 93 87 91 107 102 99
132 133 130 129 126 126 125 123 124 122 116 109 104 97 93 94 93 91 91 91 88 82 78 76 71 70 69 70 78 80 76 81 104 137 121 109 91 98 95 91 102 103 105
133 134 132 131 132 130 130 130 127 121 117 115 110 101 99 98 95 94 92 90 84 77 72 70 67 64 64 68 71 73 65 90 136 110 347 170 101 104 107 104 104 110 109
131 135 136 130 134 134 131 131 133 129 126 119 111 109 107 101 96 94 92 89 80 70 63 60 58 55 58 57 56 61 75 98 116 47 79 130 112 107 110 103 106 112 113
133 134 138 139 136 130 131 137 139 134 130 123 117 116 109 101 98 101 97 88 81 63 51 47 47 52 51 59 56 63 114 118 119 110 109 115 118 121 114 116 118 122 119
134 139 144 143 137 135 137 138 137 136 134 130 128 121 115 108 111 108 93 88 65 49 34 24 38 47 52 62 74 95 145 124 83 138 120 131 114 129 133 131 129 128 125
145 142 141 146 143 143 140 140 142 143 141 143 138 136 127 124 123 104 94 80 50 36 29 32 42 54 65 73 79 89 158 106 77 185 143 131 115 134 127 139 138 136 134
136 136 142 147 147 145 146 145 144 146 149 150 154 158 153 147 127 98 107 53 28 36 37 29 33 49 77 88 76 63 51 118 3 267 148 126 128 137 135 129 138 140 147
130 140 147 149 152 150 152 149 149 155 158 163 171 180 180 181 169 123 98 23 3 23 26 338 300 189 319 81 73 10 15 28 77 317 131 130 137 141 141 145 148 143 145
138 152 149 154 157 159 160 158 158 168 178 186 190 202 206 227 243 225 217 285 352 42 83 85 7 20 329 316 331 60 23 296 122 195 167 120 143 143 149 148 159 166 166
155 158 156 160 161 165 165 173 167 181 188 189 201 233 267 252 201 191 258 302 16 358 314 8 16 333 51 322 321 289 325 313 106 308 210 157 137 144 160 163 168 175 178
158 176 164 174 164 181 168 161 180 191 195 191 203 222 256 281 269 270 251 315 6 56 317 243 358 324 316 85 324 92 358 43 52 119 151 136 132 149 158 175 183 185 187
167 190 173 169 162 176 163 166 196 190 195 200 186 200 228 258 234 280 20 317 277 226 50 347 264 4 347 358 341 359 355 347 356 166 161 240 114 179 175 186 200 195 200
173 202 163 162 171 195 191 188 212 200 185 202 181 195 187 254 199 320 316 306 338 308 33 9 309 359 350 331 333 315 309 330 332 36 219 105 92 184 212 194 206 208 205
180 188 156 161 177 197 211 232 227 240 173 221 222 191 176 207 18 192 272 290 292 314 335 0 333 349 312 293 294 285 346 308 296 344 51 323 215 206 213 228 214 209 213
182 183 169 173 180 194 211 223 225 233 247 249 222 179 166 204 234 229 271 291 310 330 305 313 317 321 302 305 307 249 303 287 287 337 311 291 250 239 213 215 230 216 215
180 183 183 190 181 185 198 205 211 227 240 230 248 205 186 221 239 269 267 271 283 329 292 301 294 308 328 346 328 296 281 323 324 283 265 260 325 269 218 218 215 224 221
185 181 184 193 191 183 192 204 212 232 237 232 247 218 209 211 226 223 254 263 269 286 312 296 61 351 342 321 294 318 95 307 278 14 61 274 194 321 247 204 204 245 229
184 185 184 195 204 185 188 197 211 223 229 249 232 251 206 203 209 219 250 265 231 267 290 291 28 336 303 297 316 313 319 285 307 348 69 82 78 76 77 33 268 277 234
185 184 185 194 199 181 183 185 212 218 225 228 231 237 187 244 224 230 247 258 242 237 203 178 14 325 316 356 321 303 218 195 173 308 98 58 59 84 26 46 41 69 161
189 184 186 192 199 192 192 207 206 213 215 216 221 223 238 204 220 223 226 242 188 232 159 133 33 346 316 71 338 317 274 179 196 141 112 73 5 13 103 73 50 76 96
187 183 183 188 195 193 197 204 221 238 217 207 226 199 202 189 208 193 191 199 168 187 171 127 143 330 331 355 33 314 357 358 246 147 131 139 131 69 56 71 61 60 89
191 185 183 184 192 194 203 203 206 209 234 223 243 234 219 186 186 209 194 186 159 111 138 132 141 124 333 322 263 174 88 352 352 39 147 146 159 156 146 135 29 74 100
194 187 183 183 189 195 205 213 211 192 215 232 219 172 152 179 182 208 172 169 187 183 158 147 75 157 213 301 348 41 118 250 140 294 355 195 208 171 160 152 133 215 151
196 191 188 183 188 192 201 212 215 204 221 213 217 167 178 176 188 193 181 188 179 180 166 158 168 190 244 293 311 23 295 343 28 340 345 351 350 221 174 179 190 185 216